Wind_Speed
41 40 39 39 38 37 37 36 35 34 34 34 35 34 34 33 34 34 35 36 36 37 39 40 41 42 42 43 44 46 47 49 50 51 53 54 56 59 61 63 64 65 66
42 41 40 39 38 38 36 36 35 34 34 34 34 34 33 33 34 34 34 36 37 38 39 40 41 42 42 43 45 47 48 50 51 53 54 57 59 61 63 64 65 66 66
42 42 40 40 39 37 36 35 34 34 34 34 33 32 32 33 33 34 35 36 37 38 39 40 41 42 43 44 46 47 49 51 53 55 56 58 61 62 64 65 66 66 66
41 40 40 39 38 37 36 34 34 34 34 33 32 32 32 33 33 34 35 36 37 38 39 40 41 42 43 45 47 49 51 52 54 56 58 60 62 63 65 66 66 66 65
41 40 39 38 37 36 34 34 34 33 32 32 32 32 32 32 33 34 35 36 37 38 39 41 42 42 44 46 48 50 51 53 55 57 59 61 62 65 66 66 65 63 62
40 39 37 36 35 35 34 34 33 32 31 31 31 31 32 32 33 34 35 36 37 38 39 40 41 43 44 46 48 50 52 54 56 58 60 62 64 65 66 65 64 62 60
38 37 36 35 35 34 33 32 32 31 30 30 31 31 31 31 33 34 35 36 37 38 39 40 41 43 45 47 49 51 52 55 57 59 61 63 65 65 64 63 62 61 59
36 35 34 34 33 32 31 31 30 30 29 29 30 30 31 31 32 33 35 36 37 38 39 40 41 43 45 47 49 50 52 55 57 59 62 64 64 64 63 62 60 58 56
35 34 33 32 31 31 30 30 29 29 29 29 29 30 31 31 32 33 35 36 37 38 39 40 41 43 45 48 49 51 53 56 58 60 62 63 63 62 61 60 58 55 53
34 33 32 32 31 30 30 29 29 28 28 28 29 29 30 31 32 33 34 35 36 37 39 40 42 44 45 48 49 51 54 56 58 60 61 62 62 61 60 58 55 53 51
34 32 32 31 31 30 29 28 28 27 27 28 29 29 30 31 32 33 34 35 36 37 39 41 42 44 45 48 50 52 55 56 58 60 61 60 60 59 58 56 54 52 49
33 32 31 31 30 29 28 27 27 27 27 28 28 29 30 31 32 33 34 35 36 38 39 41 42 44 46 48 51 53 55 56 58 60 59 59 58 58 56 55 52 49 47
33 32 31 30 29 28 27 27 26 26 27 28 28 29 30 31 32 33 34 35 37 38 39 41 42 44 46 49 51 53 55 57 59 59 58 58 57 57 55 53 50 48 46
32 31 30 29 29 28 27 26 26 27 27 27 28 29 30 31 32 33 35 36 37 38 39 41 42 44 47 49 51 53 55 57 58 58 57 57 57 55 53 51 49 47 45
32 31 30 29 28 27 27 27 27 27 26 27 28 29 30 31 32 34 35 36 37 38 39 40 42 45 47 49 51 54 56 57 57 56 56 56 56 54 52 50 48 46 44
32 30 29 28 28 27 27 27 26 26 27 27 28 29 30 31 33 34 35 36 37 38 39 40 43 45 47 50 51 54 56 57 56 55 55 56 55 54 51 48 46 44 42
32 31 30 29 28 27 27 27 27 27 27 28 29 29 30 31 33 34 35 35 36 37 38 40 43 45 48 50 52 54 56 56 55 54 55 56 55 53 49 47 44 42 40
33 31 30 29 28 28 28 27 27 27 28 28 29 29 30 31 32 33 34 34 35 37 38 40 43 46 48 50 52 54 55 56 55 55 56 55 54 51 48 44 42 40 38
32 31 30 29 28 28 28 27 27 27 28 28 29 29 30 31 32 33 33 34 35 36 38 40 43 46 49 50 52 54 55 55 55 55 55 54 51 49 46 42 40 38 35
32 31 30 29 29 28 28 27 27 28 28 28 29 29 29 30 31 31 32 33 34 36 38 41 44 47 49 51 53 55 56 55 54 54 53 51 49 47 44 40 38 35 32
32 31 30 30 29 29 28 28 28 28 28 28 28 28 29 29 30 30 31 32 35 37 39 41 45 48 50 51 53 55 55 54 53 52 51 49 47 45 41 38 35 32 29
33 31 31 30 29 29 28 28 28 28 28 27 27 27 28 29 29 30 31 33 35 37 40 42 46 49 51 52 54 55 54 53 51 49 48 47 45 43 39 37 33 29 27
32 32 31 30 29 29 28 27 27 27 26 26 26 27 28 28 29 30 32 33 35 38 40 43 47 50 51 52 54 54 53 51 49 47 46 45 43 41 38 34 30 27 25
32 31 30 30 29 28 27 26 25 25 25 25 26 27 27 28 29 30 32 34 36 39 42 45 48 50 51 52 53 53 51 49 47 45 44 43 41 39 36 32 28 26 24
32 31 30 29 27 26 25 24 24 24 25 25 25 26 27 28 29 31 33 35 37 40 43 46 48 50 51 52 52 52 50 48 45 44 43 41 40 37 34 30 27 25 23
31 30 29 27 26 25 24 24 24 24 24 25 25 26 27 28 30 32 34 36 38 41 43 46 49 50 51 51 51 50 49 46 44 43 41 40 38 36 32 29 26 24 22
Wind_Direction
245 247 248 251 254 258 262 265 268 271 275 278 280 282 285 287 290 292 294 296 298 300 302 303 305 306 307 308 308 309 310 311 312 312 312 312 312 311 311 311 311 310 309
244 246 248 251 254 258 261 264 268 270 273 276 279 281 284 287 289 292 294 296 298 300 301 303 304 306 307 308 309 310 311 312 312 312 312 312 312 313 312 312 311 311 310
244 246 248 251 254 257 260 263 266 269 272 275 278 281 284 286 289 291 293 296 298 300 301 302 304 306 307 309 310 310 311 312 313 313 313 314 314 314 314 313 312 312 311
243 245 248 251 253 256 259 261 264 268 271 274 277 280 283 286 288 291 293 296 298 299 301 303 305 307 308 309 310 311 312 313 314 315 315 315 315 315 315 315 314 313 312
241 243 245 248 251 254 257 260 263 267 270 274 277 279 282 286 288 290 293 296 298 300 302 304 306 308 309 310 311 312 313 314 315 316 317 317 317 317 316 316 316 315 314
240 242 244 247 250 253 256 259 263 266 270 273 276 279 283 286 288 291 294 296 299 300 302 305 307 309 310 311 312 313 314 316 317 318 319 319 319 319 319 319 318 318 316
240 242 244 246 248 252 255 258 262 266 269 272 275 279 283 286 289 291 295 297 300 301 303 306 307 309 310 312 314 315 316 317 318 319 320 320 320 320 321 321 321 320 319
239 241 243 245 248 251 254 258 261 265 269 272 276 280 283 286 289 292 295 298 300 302 304 306 308 309 311 313 315 316 317 318 319 320 321 322 322 322 323 323 322 322 322
237 239 241 244 247 250 253 257 261 265 268 272 276 280 283 286 289 293 296 298 301 303 305 307 308 310 312 314 316 317 318 319 320 321 322 322 323 324 324 324 324 324 324
235 238 241 244 247 250 253 257 261 264 268 272 277 280 283 287 291 294 297 300 302 304 306 308 310 312 313 316 317 318 319 320 321 322 323 324 324 325 326 326 325 325 325
235 238 241 244 247 250 253 257 260 264 268 272 277 280 284 288 292 295 298 300 303 305 307 309 311 313 314 316 318 319 320 322 323 324 324 325 326 326 326 326 326 326 326
236 238 241 245 248 252 253 256 260 264 268 273 277 281 285 288 292 296 299 302 304 306 308 310 311 313 315 317 319 321 322 323 324 325 325 326 327 327 327 327 326 326 326
238 239 242 245 249 252 254 258 261 265 270 274 279 282 286 290 294 297 300 302 304 306 308 311 312 314 317 318 320 322 323 324 325 326 326 327 327 328 327 327 327 327 326
237 239 241 245 248 251 254 259 263 267 271 276 279 283 288 291 295 298 300 303 305 307 309 311 313 315 317 319 321 323 324 325 326 327 327 328 328 328 328 327 327 327 327
236 239 241 244 246 250 254 258 262 267 272 276 280 285 289 293 296 298 301 303 306 308 310 312 314 316 318 320 322 324 325 326 327 327 328 329 329 329 328 328 327 327 327
236 238 240 243 246 250 254 258 263 268 272 276 281 286 289 293 296 299 301 303 306 308 310 313 315 317 320 322 323 325 326 327 327 328 328 329 329 329 328 328 327 327 327
235 237 239 242 245 249 253 258 263 268 272 278 283 287 291 295 298 300 302 304 306 309 311 314 316 319 321 323 324 326 327 328 328 328 329 330 330 329 328 328 328 328 328
234 235 237 240 244 249 253 258 263 269 274 279 283 287 291 296 298 300 302 304 307 309 312 315 318 321 323 324 325 327 328 328 328 328 329 330 330 330 329 328 328 329 329
233 234 236 240 244 248 253 258 263 269 274 279 283 287 291 295 298 300 302 305 308 311 314 317 320 322 324 325 326 327 328 328 328 328 329 330 330 330 330 329 329 329 330
230 232 235 239 244 249 254 259 264 269 274 279 283 287 291 295 298 301 304 307 310 313 316 319 321 323 325 326 326 328 328 328 328 329 330 330 331 331 330 329 330 330 331
229 232 236 240 244 249 255 259 264 270 275 279 283 287 292 295 298 301 305 308 312 314 317 319 322 324 326 326 327 328 328 328 329 329 330 331 331 331 331 330 330 331 332
229 232 236 240 245 251 255 260 265 269 274 278 283 288 292 296 299 302 306 310 313 315 318 320 323 325 326 327 327 328 329 329 329 330 331 332 332 332 332 331 331 331 332
231 234 237 240 245 250 254 259 264 268 273 278 284 289 292 295 299 303 307 310 313 316 319 321 324 326 326 327 328 329 329 330 330 331 331 332 333 333 332 332 332 332 332
231 234 236 240 244 248 252 258 264 268 274 280 285 288 292 295 300 304 308 311 314 317 320 322 325 326 327 328 329 329 330 330 330 331 332 333 333 333 333 332 332 332 332
232 234 236 239 241 246 252 258 264 270 276 280 284 288 292 296 300 305 308 312 315 317 320 323 325 326 327 328 329 330 330 330 330 331 332 333 333 333 333 333 331 331 332
231 232 234 236 240 247 253 259 266 271 276 280 284 288 292 297 301 305 309 312 315 318 321 323 325 326 327 328 329 330 330 330 330 330 331 332 332 332 332 332 331 330 331
Height
5724 5728 5731 5734 5737 5739 5740 5742 5743 5743 5743 5743 5742 5741 5740 5738 5736 5734 5732 5729 5726 5722 5718 5714 5710 5705 5700 5695 5689 5684 5677 5671 5665 5659 5650 5643 5635 5626 5617 5608 5598 5589 5579
5715 5719 5723 5726 5728 5730 5732 5734 5734 5735 5735 5735 5734 5733 5732 5730 5729 5727 5724 5721 5718 5714 5710 5706 5702 5697 5692 5687 5681 5675 5668 5661 5655 5648 5640 5631 5623 5613 5604 5594 5584 5573 5563
5706 5710 5714 5717 5720 5722 5724 5725 5726 5727 5727 5727 5726 5725 5724 5723 5721 5719 5716 5713 5710 5706 5702 5698 5693 5688 5683 5678 5672 5666 5659 5652 5644 5637 5629 5619 5610 5600 5590 5580 5569 5558 5547
5697 5701 5705 5708 5711 5714 5715 5717 5718 5718 5719 5718 5718 5717 5716 5715 5713 5711 5708 5705 5702 5698 5694 5690 5685 5680 5675 5669 5663 5657 5650 5642 5634 5625 5617 5607 5597 5587 5576 5566 5555 5544 5533
5688 5692 5696 5699 5702 5705 5707 5708 5709 5710 5710 5710 5710 5709 5708 5707 5705 5703 5700 5697 5694 5690 5686 5681 5677 5672 5666 5660 5654 5647 5639 5632 5623 5614 5605 5595 5584 5574 5563 5551 5540 5530 5519
5679 5684 5687 5690 5693 5696 5698 5700 5701 5702 5702 5702 5702 5702 5700 5699 5697 5695 5692 5689 5686 5682 5678 5673 5668 5663 5657 5651 5644 5637 5629 5621 5613 5603 5593 5583 5572 5560 5548 5536 5525 5516 5507
5671 5675 5678 5682 5685 5687 5690 5691 5693 5694 5694 5695 5694 5694 5693 5691 5689 5687 5684 5681 5678 5674 5670 5665 5660 5654 5648 5642 5635 5628 5619 5610 5602 5592 5582 5570 5559 5548 5537 5525 5513 5501 5491
5662 5666 5670 5673 5676 5679 5681 5683 5685 5686 5686 5687 5687 5686 5685 5683 5681 5679 5676 5673 5669 5665 5661 5657 5651 5646 5640 5633 5626 5618 5609 5601 5592 5582 5571 5559 5547 5535 5524 5512 5501 5491 5480
5654 5658 5662 5665 5668 5671 5673 5675 5677 5678 5679 5679 5679 5678 5677 5675 5673 5671 5668 5665 5661 5657 5653 5648 5643 5637 5631 5625 5617 5609 5601 5591 5581 5570 5559 5547 5535 5524 5512 5501 5491 5480 5471
5646 5650 5654 5657 5660 5663 5666 5667 5669 5670 5671 5671 5671 5670 5669 5667 5665 5663 5660 5657 5653 5649 5645 5640 5634 5628 5622 5615 5608 5600 5591 5581 5571 5560 5549 5537 5525 5514 5502 5491 5481 5471 5462
5638 5642 5646 5649 5652 5655 5658 5659 5661 5662 5663 5663 5663 5663 5661 5659 5657 5655 5652 5649 5645 5641 5636 5631 5625 5619 5613 5606 5598 5590 5581 5571 5561 5550 5539 5528 5516 5505 5493 5482 5472 5463 5453
5630 5634 5638 5641 5645 5647 5650 5651 5653 5654 5655 5656 5655 5655 5653 5651 5649 5647 5644 5641 5637 5632 5628 5622 5617 5611 5604 5597 5589 5581 5571 5562 5551 5540 5529 5518 5507 5496 5485 5474 5464 5454 5446
5622 5626 5630 5634 5637 5640 5642 5644 5646 5647 5648 5648 5648 5647 5645 5644 5641 5639 5636 5632 5628 5624 5619 5614 5608 5602 5595 5588 5580 5571 5562 5552 5541 5530 5520 5509 5498 5487 5476 5466 5456 5447 5438
5615 5619 5623 5626 5629 5632 5635 5637 5638 5639 5640 5640 5640 5639 5638 5636 5633 5631 5628 5624 5620 5616 5611 5606 5600 5593 5586 5579 5571 5562 5552 5542 5532 5521 5510 5500 5489 5478 5468 5458 5449 5440 5432
5607 5611 5615 5619 5622 5625 5627 5629 5631 5632 5633 5633 5632 5631 5630 5628 5626 5623 5620 5616 5612 5608 5603 5597 5591 5585 5578 5570 5561 5552 5543 5532 5522 5512 5502 5491 5481 5470 5460 5451 5442 5433 5425
5599 5604 5608 5612 5615 5617 5620 5622 5623 5624 5625 5625 5624 5623 5622 5620 5617 5614 5611 5607 5603 5599 5594 5589 5583 5576 5569 5561 5552 5543 5533 5523 5513 5503 5493 5483 5473 5462 5452 5443 5434 5426 5418
5592 5596 5601 5604 5607 5610 5612 5614 5615 5616 5617 5617 5616 5615 5614 5612 5609 5606 5603 5599 5595 5591 5586 5581 5575 5568 5560 5552 5543 5534 5524 5514 5504 5494 5485 5474 5464 5454 5444 5436 5427 5419 5412
5584 5589 5593 5596 5600 5602 5605 5607 5608 5609 5609 5609 5608 5607 5606 5604 5601 5598 5595 5591 5587 5583 5578 5572 5566 5559 5551 5543 5534 5525 5515 5505 5495 5486 5476 5466 5456 5446 5437 5428 5420 5413 5406
5577 5581 5585 5589 5592 5595 5597 5599 5600 5601 5602 5601 5601 5599 5598 5595 5593 5590 5587 5583 5579 5575 5570 5564 5558 5550 5543 5534 5525 5516 5506 5496 5486 5477 5467 5457 5447 5438 5429 5421 5414 5407 5400
5569 5574 5578 5581 5585 5587 5590 5591 5593 5594 5594 5593 5593 5591 5590 5587 5585 5582 5579 5575 5571 5567 5562 5556 5549 5542 5534 5525 5516 5507 5497 5487 5477 5468 5459 5449 5440 5431 5423 5415 5408 5402 5396
5561 5566 5570 5574 5577 5580 5582 5584 5585 5586 5586 5586 5585 5584 5582 5580 5577 5574 5571 5568 5564 5559 5553 5547 5541 5533 5525 5516 5507 5498 5488 5478 5469 5460 5451 5442 5433 5425 5417 5410 5403 5397 5391
5554 5559 5563 5566 5569 5572 5574 5576 5577 5578 5578 5578 5577 5576 5574 5572 5570 5567 5564 5560 5556 5551 5545 5539 5532 5525 5516 5508 5498 5489 5479 5469 5460 5452 5443 5435 5426 5419 5411 5405 5398 5393 5388
5547 5551 5555 5558 5562 5564 5566 5568 5569 5570 5570 5570 5569 5568 5566 5564 5562 5559 5556 5552 5548 5543 5537 5531 5524 5516 5507 5498 5489 5480 5470 5461 5453 5444 5436 5428 5420 5413 5406 5400 5394 5389 5385
5539 5544 5548 5551 5554 5557 5559 5561 5562 5562 5562 5562 5561 5560 5559 5557 5554 5551 5548 5544 5539 5534 5529 5522 5515 5507 5498 5489 5480 5471 5462 5453 5445 5437 5430 5422 5415 5408 5402 5396 5390 5386 5382
5532 5536 5540 5543 5547 5549 5551 5553 5554 5555 5555 5555 5554 5553 5551 5549 5546 5543 5540 5536 5531 5526 5520 5513 5506 5498 5489 5481 5472 5463 5454 5446 5438 5431 5424 5417 5410 5403 5397 5392 5387 5383 5379
5525 5529 5533 5536 5539 5542 5544 5545 5546 5547 5547 5547 5546 5545 5543 5541 5538 5535 5532 5527 5523 5517 5511 5504 5497 5489 5481 5472 5464 5455 5447 5439 5432 5425 5418 5411 5405 5399 5393 5388 5383 5379 5375